Latest Weather Observations for Mount Read

IDT60801

Issued at 4:35 pm EDT Saturday 25 October 2014 (issued every 30 minutes, with the page automatically refreshed every 10 minutes)

About weather observations | Map of weather stations | Latest weather observations for TAS | Other Formats
Station Details ID: 097085 Name: MOUNT READ Lat: -41.84 Lon: 145.54 Height: 1119.5 m
Data from the previous 72 hours. | See also: Recent months at Mount Read
Date/Time
EDT
Temp
°C
App
Temp
°C
Dew
Point
Rel
Hum
%
Delta-T
°C
Wind Press
QNH
hPa
Press
MSL
hPa
Rain
since 9 am
mm
Dir
 
Spd
km/h
Gust
km/h
Spd
kts
Gust
kts
25/04:30pm 10.6 7.4 8.5 87 1.1 S 15 20 8 11 1015.1 1016.2 0.0
25/04:00pm 10.5 6.5 8.4 87 1.1 SSW 19 24 10 13 1015.4 1016.5 0.0
25/03:30pm 10.9 6.7 7.6 80 1.7 S 19 24 10 13 1015.7 1016.7 0.0
25/03:00pm 10.6 5.8 7.5 81 1.6 S 22 30 12 16 1015.8 1016.9 0.0
25/02:30pm 11.5 8.2 9.4 87 1.1 S 17 22 9 12 1016.1 1017.2 0.0
25/02:00pm 9.9 7.2 8.8 93 0.6 SSW 13 20 7 11 1016.2 1017.3 0.0
25/01:30pm 10.1 6.9 10.0 99 0.1 S 17 24 9 13 1016.1 1017.2 0.0
25/01:00pm 8.7 5.2 8.6 99 0.1 S 17 24 9 13 1016.3 1017.4 0.0
25/12:30pm 8.3 5.4 8.2 99 0.1 SSE 13 20 7 11 1016.4 1017.5 0.0
25/12:00pm 7.8 4.0 7.7 99 0.1 SSE 17 24 9 13 1016.6 1017.7 0.0
25/11:30am 7.0 2.5 6.9 99 0.0 SSW 20 26 11 14 1016.7 1017.8 0.0
25/11:00am 6.9 2.6 6.8 99 0.0 S 19 26 10 14 1016.7 1017.8 0.0
25/10:30am 5.9 0.4 5.8 99 0.0 S 24 32 13 17 1016.0 1017.1 0.0
25/10:00am 6.1 0.2 6.0 99 0.0 S 26 33 14 18 1015.8 1016.9 0.0
25/09:30am 5.7 -0.6 5.6 99 0.0 S 28 35 15 19 1015.6 1016.6 0.0
25/09:00am 5.5 -1.2 5.4 99 0.0 S 30 35 16 19 1015.2 1016.3 4.0
25/08:30am 5.5 -1.8 5.4 99 0.0 S 33 39 18 21 1015.0 1016.1 3.8
25/08:00am 5.6 -1.1 5.5 99 0.0 S 30 35 16 19 1014.9 1015.9 3.8
25/07:30am 5.7 0.1 5.6 99 0.0 S 24 32 13 17 1014.8 1015.8 3.6
25/07:00am 5.6 0.8 5.5 99 0.0 S 20 28 11 15 1014.3 1015.4 3.4
25/06:30am 5.7 0.1 5.6 99 0.0 S 24 30 13 16 1013.9 1014.9 3.4
25/06:00am 5.9 0.0 5.8 99 0.0 SSW 26 33 14 18 1013.5 1014.6 3.2
25/05:30am 6.0 -0.6 5.9 99 0.0 SSW 30 39 16 21 1013.0 1014.0 2.8
25/05:00am 5.9 -1.1 5.8 99 0.0 SSW 32 39 17 21 1012.8 1013.8 2.6
25/04:30am 5.9 -1.7 5.8 99 0.0 SSW 35 44 19 24 1012.2 1013.2 2.6
25/04:00am 5.9 -1.3 5.8 99 0.0 SSW 33 48 18 26 1012.2 1013.2 2.6
25/03:30am 6.1 -0.9 6.0 99 0.0 SSW 32 39 17 21 1012.3 1013.3 2.2
25/03:00am 6.3 -0.3 6.2 99 0.0 SW 30 41 16 22 1012.3 1013.3 2.2
25/02:30am 6.5 0.0 6.4 99 0.0 SW 30 43 16 23 1012.3 1013.3 1.8
25/02:00am 6.5 -1.0 6.4 99 0.0 SW 35 46 19 25 1012.2 1013.2 1.6
25/01:30am 6.9 0.5 6.8 99 0.0 WSW 30 41 16 22 1012.4 1013.4 1.4
25/01:00am 7.1 1.1 7.0 99 0.0 WSW 28 37 15 20 1012.4 1013.4 1.0
25/12:30am 6.7 1.4 6.6 99 0.0 WSW 24 32 13 17 1012.3 1013.3 0.4
25/12:00am 6.8 1.5 6.7 99 0.0 W 24 39 13 21 1012.3 1013.3 0.2
 
Date/Time
EDT
Temp
°C
App
Temp
°C
Dew
Point
Rel
Hum
%
Delta-T
°C
Wind Press
QNH
hPa
Press
MSL
hPa
Rain
since 9 am
mm
Dir
 
Spd
km/h
Gust
km/h
Spd
kts
Gust
kts
24/11:30pm 7.0 1.3 6.9 99 0.0 WNW 26 44 14 24 1012.2 1013.2 0.2
24/11:25pm 6.9 -0.1 6.8 99 0.0 WNW 33 52 18 28 1012.0 1013.0 0.2
24/11:18pm 7.0 -1.9 6.9 99 0.0 W 43 52 23 28 1011.6 1012.6 0.2
24/11:00pm 7.5 2.7 7.4 99 0.1 NW 22 46 12 25 1011.6 1012.6 0.0
24/10:37pm 8.5 2.8 8.4 99 0.1 WNW 28 48 15 26 1011.8 1012.7 0.0
24/10:30pm 8.6 2.9 8.5 99 0.1 WNW 28 41 15 22 1011.8 1012.7 0.0
24/10:00pm 9.2 4.8 9.1 99 0.1 NNW 22 41 12 22 1011.9 1012.8 0.0
24/09:30pm 9.4 4.3 9.3 99 0.1 NNW 26 35 14 19 1011.5 1012.5 0.0
24/09:00pm 9.6 4.2 9.5 99 0.1 N 28 35 15 19 1011.5 1012.5 0.0
24/08:30pm 10.0 4.7 9.9 99 0.1 NNW 28 39 15 21 1011.5 1012.5 0.0
24/08:00pm 10.1 4.5 10.0 99 0.1 NNW 30 39 16 21 1011.3 1012.3 0.0
24/07:30pm 10.2 4.6 10.1 99 0.1 N 30 41 16 22 1011.2 1012.2 0.0
24/07:00pm 10.4 4.2 10.2 99 0.1 NNW 33 43 18 23 1010.5 1011.5 0.0
24/06:30pm 10.5 2.8 10.3 99 0.1 N 41 52 22 28 1010.1 1011.0 0.0
24/06:00pm 10.5 2.8 10.3 99 0.1 N 41 54 22 29 1009.6 1010.6 0.0
24/05:30pm 10.5 3.2 10.3 99 0.1 N 39 54 21 29 1010.0 1010.9 0.0
24/05:00pm 10.8 4.9 10.6 99 0.1 N 32 39 17 21 1010.8 1011.7 0.0
24/04:30pm 10.9 6.6 10.7 99 0.1 N 24 32 13 17 1011.3 1012.3 0.0
24/04:00pm 11.0 5.0 10.8 99 0.1 N 33 43 18 23 1011.4 1012.4 0.0
24/03:30pm 11.2 3.3 10.9 98 0.2 NNE 43 54 23 29 1011.1 1012.0 0.0
24/03:00pm 11.1 3.0 10.6 97 0.3 NNE 44 57 24 31 1011.5 1012.5 0.0
24/02:30pm 11.3 2.3 10.4 94 0.5 NNE 48 74 26 40 1011.5 1012.5 0.0
24/02:00pm 11.7 1.6 10.4 92 0.7 NNE 54 76 29 41 1011.4 1012.4 0.0
24/01:30pm 12.1 3.1 10.3 89 1.0 NNE 48 67 26 36 1011.9 1012.8 0.0
24/01:00pm 10.9 1.8 10.0 94 0.5 N 48 76 26 41 1012.1 1013.1 0.0
24/12:30pm 11.0 2.9 9.9 93 0.6 NNE 43 83 23 45 1012.8 1013.8 0.0
24/12:26pm 10.9 3.1 9.8 93 0.6 NNE 41 83 22 45 1012.7 1013.6 0.0
24/12:00pm 10.6 3.9 9.5 93 0.6 NNE 35 54 19 29 1013.4 1014.4 0.0
24/11:30am 9.6 2.0 9.1 97 0.3 NNE 39 67 21 36 1014.1 1015.1 0.0
24/11:00am 9.0 -0.4 8.7 98 0.2 NNE 48 70 26 38 1014.2 1015.3 0.0
24/10:31am 8.7 1.0 8.6 99 0.1 N 39 57 21 31 1014.8 1015.8 0.0
24/10:30am 8.7 0.6 8.6 99 0.1 N 41 57 22 31 1014.7 1015.7 0.0
24/10:00am 8.3 -1.6 8.2 99 0.1 NNE 50 74 27 40 1014.7 1015.7 0.0
24/09:30am 8.0 -1.2 7.9 99 0.1 NNE 46 69 25 37 1014.5 1015.6 0.0
24/09:00am 7.5 -0.9 7.4 99 0.0 NNE 41 70 22 38 1015.1 1016.2 0.0
24/08:32am 7.0 -1.1 6.9 99 0.0 NNE 39 57 21 31 1015.6 1016.6 0.0
24/08:30am 7.1 -1.4 7.0 99 0.0 NNE 41 57 22 31 1015.4 1016.5 0.0
24/08:00am 7.1 -2.8 6.7 97 0.2 NE 48 70 26 38 1015.3 1016.4 0.0
24/07:53am 6.9 -2.3 6.5 97 0.2 NNE 44 65 24 35 1015.3 1016.4 0.0
24/07:30am 6.6 -2.7 5.7 94 0.4 NNE 44 56 24 30 1015.6 1016.6 0.0
24/07:00am 5.9 -3.0 5.2 95 0.3 NNE 41 59 22 32 1015.8 1016.9 0.0
24/06:32am 5.3 -3.3 4.6 95 0.3 NNE 39 67 21 36 1016.1 1017.2 0.0
24/06:30am 5.0 -3.7 4.3 95 0.3 NNE 39 54 21 29 1016.1 1017.2 0.0
24/06:00am 4.7 -4.8 3.7 93 0.4 NNE 43 57 23 31 1016.2 1017.3 0.0
24/05:47am 4.6 -5.1 2.9 89 0.7 NNE 43 65 23 35 1016.2 1017.3 0.0
24/05:30am 4.8 -5.6 2.3 84 1.1 NNE 46 59 25 32 1015.9 1017.0 0.0
24/05:00am 5.0 -5.0 0.9 75 1.7 NNE 43 52 23 28 1015.7 1016.7 0.0
24/04:30am 6.0 -2.8 1.2 71 2.0 NE 37 46 20 25 1016.4 1017.5 0.0
24/04:00am 6.4 -2.2 0.1 64 2.6 NE 35 46 19 25 1017.0 1018.1 0.0
24/03:30am 6.6 -2.2 -1.3 57 3.2 NE 35 44 19 24 1017.7 1018.8 0.0
24/03:00am 6.1 -3.6 -2.5 54 3.4 NE 39 54 21 29 1018.2 1019.4 0.0
24/02:30am 5.9 -4.7 -3.2 52 3.5 NE 43 52 23 28 1018.8 1019.9 0.0
24/02:00am 6.3 -4.9 -3.6 49 3.8 NE 46 57 25 31 1018.9 1020.1 0.0
24/01:30am 7.0 -3.4 -5.3 41 4.5 NE 41 54 22 29 1019.2 1020.4 0.0
24/01:21am 6.3 -3.8 -2.6 53 3.5 NE 41 61 22 33 1019.6 1020.7 0.0
24/01:00am 7.0 -4.2 -3.8 46 4.1 NE 46 61 25 33 1019.9 1021.1 0.0
24/12:53am 6.7 -3.9 -3.0 50 3.8 NE 43 61 23 33 1020.0 1021.2 0.0
24/12:30am 6.9 -3.8 -2.8 50 3.8 NE 44 54 24 29 1020.3 1021.5 0.0
24/12:00am 7.0 -3.8 -0.4 59 3.1 NE 46 59 25 32 1020.7 1021.9 0.0
 
Date/Time
EDT
Temp
°C
App
Temp
°C
Dew
Point
Rel
Hum
%
Delta-T
°C
Wind Press
QNH
hPa
Press
MSL
hPa
Rain
since 9 am
mm
Dir
 
Spd
km/h
Gust
km/h
Spd
kts
Gust
kts
23/11:30pm 7.2 -2.2 0.0 60 3.0 NE 39 48 21 26 1021.2 1022.5 0.0
23/11:00pm 7.3 -0.2 3.4 76 1.8 NE 32 41 17 22 1021.6 1022.8 0.0
23/10:30pm 7.2 2.3 4.9 85 1.1 NNE 20 26 11 14 1022.1 1023.4 0.0
23/10:00pm 7.5 2.8 6.1 91 0.7 NNE 20 22 11 12 1022.2 1023.5 0.0
23/09:30pm 8.0 2.8 7.4 96 0.3 NNE 24 30 13 16 1022.1 1023.4 0.0
23/09:00pm 8.6 4.0 8.2 97 0.2 NNE 22 26 12 14 1022.2 1023.5 0.0
23/08:30pm 8.9 4.6 8.0 94 0.5 NNE 20 22 11 12 1022.1 1023.4 0.0
23/08:00pm 9.3 5.3 8.1 92 0.6 NNE 19 24 10 13 1022.1 1023.4 0.0
23/07:30pm 9.2 7.1 8.3 94 0.5 NNE 9 13 5 7 1022.1 1023.4 0.0
23/07:00pm 10.2 8.7 8.5 89 0.9 NNE 6 9 3 5 1022.0 1023.3 0.0
23/06:30pm 10.6 8.9 8.4 86 1.1 SSW 7 13 4 7 1022.1 1023.4 0.0
23/06:00pm 11.2 9.6 8.9 86 1.2 S 7 11 4 6 1022.0 1023.3 0.0
23/05:30pm 11.1 9.1 8.5 84 1.4 S 9 13 5 7 1022.0 1023.3 0.0
23/05:00pm 11.2 8.4 8.6 84 1.4 SSW 13 17 7 9 1022.2 1023.5 0.0
23/04:30pm 11.8 9.1 8.8 82 1.6 S 13 19 7 10 1022.1 1023.4 0.0
23/04:00pm 13.1 10.5 9.5 79 1.9 SW 13 19 7 10 1022.0 1023.3 0.0
23/03:30pm 11.8 8.0 9.2 84 1.4 WSW 19 20 10 11 1021.9 1023.2 0.0
23/03:00pm 13.3 10.7 9.5 78 2.1 SSW 13 20 7 11 1021.9 1023.2 0.0
23/02:30pm 14.3 11.0 6.6 60 4.0 NNE 13 19 7 10 1022.1 1023.4 0.0
23/02:00pm 15.0 13.3 8.3 64 3.6 NE 7 17 4 9 1022.4 1023.6 0.0
23/01:30pm 15.7 13.8 7.7 59 4.2 NNE 7 15 4 8 1022.2 1023.5 0.0
23/01:00pm 16.1 13.7 8.8 62 4.0 N 11 20 6 11 1022.2 1023.5 0.0
23/12:30pm 14.3 11.6 7.4 63 3.6 NE 11 19 6 10 1022.4 1023.6 0.0
23/12:00pm 13.9 11.5 7.2 64 3.5 NNE 9 17 5 9 1022.6 1023.8 0.0
23/11:30am 14.3 12.4 8.9 70 2.9 NNE 9 15 5 8 1022.7 1024.0 0.0
23/11:00am 12.4 10.1 7.5 72 2.5 NNE 9 15 5 8 1022.8 1024.1 0.0
23/10:30am 12.2 10.0 7.7 74 2.3 NNE 9 19 5 10 1022.8 1024.1 0.0
23/10:00am 12.0 9.4 7.9 76 2.1 ENE 11 15 6 8 1022.6 1023.8 0.0
23/09:30am 10.1 7.0 7.3 83 1.4 E 13 19 7 10 1022.1 1023.4 0.0
23/09:00am 9.4 6.5 8.0 91 0.7 E 13 17 7 9 1021.9 1023.2 0.8
23/08:30am 7.9 4.9 7.5 97 0.2 E 13 17 7 9 1021.8 1023.0 0.8
23/08:00am 7.0 2.7 6.9 99 0.0 ESE 19 24 10 13 1021.5 1022.7 0.8
23/07:30am 6.9 2.4 6.8 99 0.0 E 20 28 11 15 1021.1 1022.3 0.8
23/07:00am 6.8 2.4 6.7 99 0.0 E 19 33 10 18 1020.7 1021.9 0.8
23/06:30am 6.3 1.2 6.2 99 0.0 E 22 30 12 16 1020.1 1021.3 0.8
23/06:00am 6.0 0.9 5.9 99 0.0 ESE 22 33 12 18 1019.7 1020.9 0.8
23/05:30am 6.2 1.1 6.1 99 0.0 ESE 22 30 12 16 1019.5 1020.6 0.8
23/05:00am 6.1 -0.1 6.0 99 0.0 SE 28 35 15 19 1019.1 1020.3 0.8
23/04:30am 6.2 0.0 6.1 99 0.0 SE 28 41 15 22 1018.9 1020.1 0.8
23/04:00am 6.2 -0.4 6.1 99 0.0 SSE 30 39 16 21 1018.8 1019.9 0.6
23/03:30am 6.4 -0.1 6.3 99 0.0 SE 30 37 16 20 1018.6 1019.7 0.6
23/03:00am 6.6 -0.5 6.5 99 0.0 SSE 33 41 18 22 1018.9 1020.1 0.6
23/02:30am 6.6 -2.0 6.5 99 0.0 SSE 41 52 22 28 1018.5 1019.6 0.6
23/02:00am 7.3 -0.8 7.2 99 0.0 SSE 39 48 21 26 1018.5 1019.6 0.6
23/01:30am 7.3 -0.4 7.2 99 0.0 SSE 37 44 20 24 1018.7 1019.8 0.6
23/01:00am 7.4 0.7 7.3 99 0.0 S 32 37 17 20 1019.0 1020.2 0.6
23/12:30am 7.6 0.9 7.5 99 0.1 S 32 41 17 22 1019.2 1020.4 0.4
23/12:00am 7.5 -0.5 7.4 99 0.0 S 39 46 21 25 1019.3 1020.5 0.4
 
Date/Time
EDT
Temp
°C
App
Temp
°C
Dew
Point
Rel
Hum
%
Delta-T
°C
Wind Press
QNH
hPa
Press
MSL
hPa
Rain
since 9 am
mm
Dir
 
Spd
km/h
Gust
km/h
Spd
kts
Gust
kts
22/11:30pm 7.7 1.1 7.6 99 0.1 S 32 41 17 22 1019.3 1020.5 0.4
22/11:00pm 7.5 0.6 7.4 99 0.0 S 33 39 18 21 1019.1 1020.3 0.4
22/10:30pm 7.6 2.1 7.5 99 0.1 S 26 32 14 17 1018.9 1020.1 0.4
22/10:00pm 7.7 1.8 7.6 99 0.1 S 28 32 15 17 1018.8 1019.9 0.4
22/09:30pm 7.8 2.3 7.7 99 0.1 S 26 30 14 16 1018.8 1019.9 0.2
22/09:00pm 7.8 3.5 7.7 99 0.1 S 20 26 11 14 1018.7 1019.8 0.2
22/08:30pm 7.9 3.6 7.8 99 0.1 SSW 20 24 11 13 1018.6 1019.7 0.0
22/08:00pm 7.9 4.9 7.8 99 0.1 SSW 13 19 7 10 1018.3 1019.5 0.0
22/07:30pm 8.1 3.8 8.0 99 0.1 SSW 20 26 11 14 1018.2 1019.4 0.0
22/07:00pm 8.5 3.6 8.4 99 0.1 SSW 24 32 13 17 1018.0 1019.1 0.0
22/06:30pm 8.8 4.3 8.7 99 0.1 SW 22 28 12 15 1018.2 1019.4 0.0
22/06:00pm 9.5 3.9 8.9 96 0.3 SSW 28 37 15 20 1018.0 1019.1 0.0
22/05:30pm 10.9 5.8 9.3 90 0.9 SSW 26 30 14 16 1018.2 1019.4 0.0
22/05:00pm 12.1 7.1 8.2 77 2.0 WNW 24 37 13 20 1018.5 1019.6 0.0

Other Formats:

Comma delimited format used in spreadsheet applications
http://www.bom.gov.au/fwo/IDT60801/IDT60801.95952.axf

JavaScript Object Notation format (JSON) in row-major order
http://www.bom.gov.au/fwo/IDT60801/IDT60801.95952.json